Weather History for Billings, MT

Change the Weather History Date:

Wednesday, May 1, 2013

  Actual Average Record
Temperature  
Mean Temperature 38 °F 51 °F  
Max Temperature 49 °F 63 °F 88 °F (1981)
Min Temperature 26 °F 39 °F 17 °F (1954)
Degree Days  
Heating Degree Days 27 14  
Month to date heating degree days 27 14  
Since 1 July heating degree days 6119 6391  
Cooling Degree Days 0 0  
Month to date cooling degree days 0 0  
Year to date cooling degree days 0 1  
Moisture  
Dew Point 17 °F    
Average Humidity 49    
Maximum Humidity 75    
Minimum Humidity 23    
Precipitation  
Precipitation T in 0.06 in 0.38 in (1954)
Month to date precipitation T 0.06  
Year to date precipitation 2.16 3.74  
Snow  
Snow T in 0.10 in 3.10 in (1954)
Month to date snowfall T 0.1  
Since 1 July snowfall 40.4 53.1  
Snow Depth 0.00 in    
Sea Level Pressure  
Sea Level Pressure 30.53 in    
Wind  
Wind Speed 6 mph (NNE)    
Max Wind Speed 11 mph    
Max Gust Speed 14 mph    
Visibility 10 miles    
Events Rain , Snow    
T = Trace of Precipitation, MM = Missing Value Source: NWS Daily Summary

Daily Weather History Graph

Daily Weather History Graph

Search for Another Location

Airport:

Trip Planner

Search our weather history database for the weather conditions in past years. The results will help you decide how hot, cold, wet, or windy it might be!

Date:

Astronomy

May. 01, 2013 Rise Set
Actual Time 6:01 AM MDT 8:22 PM MDT
Civil Twilight 5:28 AM MDT 8:55 PM MDT
Nautical Twilight 4:47 AM MDT 9:36 PM MDT
Astronomical Twilight 4:00 AM MDT 10:23 PM MDT
Moon 1:34 AM MDT (5/1) 11:43 AM MDT (5/1)
Length of Visible Light 15h 27m
Length of Day
14h 21m
Waning Gibbous, 58% of the Moon is Illuminated
May 1
Waning Gibbous
May 2
Last Quarter
May 9
New
May 17
First Quarter
May 24
Full

Hourly Weather History & Observations

Time (MDT) Temp. Windchill Dew Point Humidity Pressure Visibility Wind Dir Wind Speed Gust Speed Precip Events Conditions
12:53 AM 28.0 °F 21.7 °F 18.0 °F 66% 30.33 in 10.0 mi North 5.8 mph - N/A   Partly Cloudy
1:53 AM 30.0 °F 24.1 °F 19.0 °F 64% 30.34 in 10.0 mi North 5.8 mph - N/A   Partly Cloudy
2:53 AM 28.0 °F 20.0 °F 19.0 °F 69% 30.37 in 10.0 mi NNE 8.1 mph - N/A   Clear
3:53 AM 27.0 °F 18.0 °F 19.0 °F 72% 30.39 in 10.0 mi NNE 9.2 mph - N/A   Partly Cloudy
4:53 AM 26.1 °F 17.6 °F 19.0 °F 75% 30.42 in 10.0 mi NNE 8.1 mph - N/A   Partly Cloudy
5:53 AM 26.1 °F 17.6 °F 18.0 °F 71% 30.45 in 10.0 mi NNE 8.1 mph - N/A   Partly Cloudy
6:53 AM 26.1 °F 18.4 °F 18.0 °F 71% 30.49 in 10.0 mi North 6.9 mph - N/A   Scattered Clouds
7:53 AM 28.9 °F 22.8 °F 19.0 °F 67% 30.53 in 10.0 mi NE 5.8 mph - N/A   Partly Cloudy
8:53 AM 32.0 °F 27.5 °F 18.0 °F 56% 30.55 in 10.0 mi East 4.6 mph - N/A   Partly Cloudy
9:53 AM 34.0 °F - 19.0 °F 54% 30.57 in 10.0 mi Calm Calm - N/A   Partly Cloudy
10:53 AM 37.9 °F 31.5 °F 18.0 °F 45% 30.57 in 10.0 mi ENE 9.2 mph - N/A   Partly Cloudy
11:53 AM 39.0 °F - 18.0 °F 43% 30.58 in 10.0 mi Calm Calm - N/A   Scattered Clouds
12:53 PM 42.1 °F 37.1 °F 18.0 °F 38% 30.57 in 10.0 mi SE 8.1 mph - N/A   Scattered Clouds
1:53 PM 43.0 °F - 16.0 °F 34% 30.55 in 10.0 mi Calm Calm - N/A   Scattered Clouds
2:53 PM 46.0 °F 42.5 °F 12.0 °F 25% 30.55 in 10.0 mi SE 6.9 mph - N/A   Scattered Clouds
3:53 PM 46.0 °F 43.1 °F 12.0 °F 25% 30.55 in 10.0 mi Variable 5.8 mph - N/A   Scattered Clouds
4:53 PM 48.0 °F - 12.0 °F 24% 30.54 in 10.0 mi South 8.1 mph - N/A   Scattered Clouds
5:53 PM 46.0 °F 41.4 °F 10.9 °F 24% 30.56 in 10.0 mi WSW 9.2 mph - N/A   Mostly Cloudy
6:53 PM 46.0 °F 40.6 °F 16.0 °F 30% 30.58 in 10.0 mi North 11.5 mph - N/A   Mostly Cloudy
7:53 PM 45.0 °F - 15.1 °F 30% 30.58 in 10.0 mi Calm Calm - N/A   Mostly Cloudy
8:53 PM 43.0 °F 39.5 °F 18.0 °F 37% 30.60 in 10.0 mi North 5.8 mph - N/A   Scattered Clouds
9:53 PM 41.0 °F 39.0 °F 19.9 °F 43% 30.62 in 10.0 mi NNE 3.5 mph - N/A   Scattered Clouds
10:53 PM 42.1 °F 39.2 °F 19.9 °F 41% 30.62 in 10.0 mi North 4.6 mph - N/A   Mostly Cloudy
11:53 PM 41.0 °F 33.9 °F 21.0 °F 45% 30.63 in 10.0 mi West 12.7 mph - 0.00 in Rain Light Rain